Powrót do katalogu

USA 57

AktywnyMilitariaPO
NORAD 20561·PAYLOAD·🇺🇸 United States

Wystrzelony Apr 11, 1990 z Vandenberg Space Force Base

Loading…

Następne Przeloty (najbliższe 24 godziny)

TLE

ŚwieżeSource: Space-Track

Epoka: Sep 14, 2026, 10:51 UTC

1 20561U 90031B   26257.45260793  .00000387  00000-0  54956-4 0  9996
2 20561  89.8454 263.1398 0068930 100.8487 260.0501 14.73314914128327

Śledź USA 57 w czasie rzeczywistym z AllMySat

Download on the App Store